View from above orbital plane
|
View from above satellite
|
Ground track
|
The orbit data is extracted from the following two-line orbital elements,
1 37363U 11005B 21019.00287078 .00000491 00000-0 20405-4 0 9993
2 37363 99.4331 24.1166 0321100 218.7081 139.0730 14.95085917539747
Epoch (UTC): | 19 January 2021 00:04:08 |
Eccentricity: | 0.0321100 |
inclination: | 99.4331° |
perigee height: | 358 km |
apogee height: | 805 km |
right ascension of ascending node: | 24.1166° |
argument of perigee: | 218.7081° |
revolutions per day: | 14.95085917 |
mean anomaly at epoch: | 139.0730° |
orbit number at epoch: | 53974 |
The dashed part of the orbit path shows where the satellite is in the earth's shadow,
|
|